Regional Weather Roundup
Issued by NWS

Home | Current Version | Previous Version | Graphics & Text | Print | Product List | Glossary On
Versions: 1 2 3 4 5 6 7 8 9 10 11 12 13 14 15 16 17 18 19 20 21 22 23 24 25 26 27 28 29 30 31 32 33 34 35 36 37 38 39 40 41 42 43 44 45 46 47 48 49 50
000
ASUS43 KFSD 251302
RWRSD

WEATHER ROUNDUP FOR SOUTH DAKOTA
NATIONAL WEATHER SERVICE SIOUX FALLS SD
800 AM CDT MON JUL 25 2016

NOTE: "FAIR" INDICATES FEW OR NO CLOUDS BELOW 12,000 FEET WITH NO
SIGNIFICANT WEATHER AND/OR OBSTRUCTIONS TO VISIBILITY.


SDZ001>005-009-010-012>017-251400-
NORTHWEST AND NORTH CENTRAL SOUTH DAKOTA

CITY           SKY/WX    TMP DP  RH WIND       PRES   REMARKS
BUFFALO          N/A     64  51  62 CALM      29.99R
FAITH            N/A     67  52  58 S14       30.04S
MOBRIDGE       MOSUNNY   71  59  65 S10       30.02S
$$

SDZ012>016-024>037-041>051-057-063-072>074-251400-
SOUTHWEST AND SOUTH CENTRAL SOUTH DAKOTA

CITY           SKY/WX    TMP DP  RH WIND       PRES   REMARKS
RAPID CTY ARPT SUNNY     68  56  65 S8        30.09R
PIERRE         SUNNY     72  57  59 VRB3      30.06S
CUSTER         SUNNY     62  52  69 CALM      30.23S
ELLSWORTH AFB  SUNNY     67  58  70 S13       30.07S
PHILIP         SUNNY     67  58  72 SE6       30.07S
PINE RIDGE     SUNNY     66  60  81 CALM      30.15S
WINNER         FAIR      71  54  54 S10       30.12S
$$

SDZ004>011-016>023-039-040-251400-
NORTHEAST SOUTH DAKOTA

CITY           SKY/WX    TMP DP  RH WIND       PRES   REMARKS
ABERDEEN       PTSUNNY   62  58  86 S5        30.07R
WATERTOWN      SUNNY     67  60  78 S3        30.10R
BROOKINGS      SUNNY     66  61  84 S3        30.12R
SISSETON         N/A     70  64  81 CALM      30.06R
$$

SDZ017-020-022-023-036>040-048>070-251400-
SOUTHEAST SOUTH DAKOTA

CITY           SKY/WX    TMP DP  RH WIND       PRES   REMARKS
SIOUX FALLS    MOSUNNY   69  61  75 CALM      30.12S
HURON          SUNNY     67  60  78 CALM      30.09R
CHAMBERLAIN    SUNNY     67  63  87 S3        30.12R
MITCHELL       SUNNY     70  63  78 CALM      30.11S
YANKTON        SUNNY     66  61  82 CALM      30.12R
$$

ABBREVIATIONS USED IN REMARKS
   TC - TEMPERATURE IN CELSIUS
  WCI - WIND CHILL INDEX
   HX - HEAT INDEX
  VSB - VISIBILITY





USA.gov is the U.S. government's official web portal to all federal, state and local government web resources and services.